Time,TemperatureF,DewpointF,PressureIn,WindDirection,WindDirectionDegrees,WindSpeedMPH,WindSpeedGustMPH,Humidity,HourlyPrecipIn,Conditions,Clouds,dailyrainin,SoftwareType,DateUTC
2013-01-01 00:12:00,59.1,55.0,30.18,SSW,196,0.0,-999.0,85,-99.99,,,0.00,weatherlink.com 1.10,2013-01-01 05:12:00,
2013-01-01 00:26:00,59.1,55.0,30.17,SSW,196,0.0,-999.0,85,-99.99,,,0.00,weatherlink.com 1.10,2013-01-01 05:26:00,
2013-01-01 00:41:00,59.1,55.0,30.17,SSW,197,1.0,-999.0,85,-99.99,,,0.00,weatherlink.com 1.10,2013-01-01 05:41:00,
2013-01-01 00:56:00,59.1,55.0,30.17,SSW,197,0.0,-999.0,85,-99.99,,,0.00,weatherlink.com 1.10,2013-01-01 05:56:00,
2013-01-01 01:11:00,59.0,55.0,30.16,SSW,197,0.0,-999.0,85,-99.99,,,0.00,weatherlink.com 1.10,2013-01-01 06:11:00,
2013-01-01 01:26:00,59.0,55.0,30.16,SSW,198,1.0,-999.0,86,-99.99,,,0.00,weatherlink.com 1.10,2013-01-01 06:26:00,
2013-01-01 01:41:00,58.9,55.0,30.15,SSW,198,1.0,-999.0,86,-99.99,,,0.00,weatherlink.com 1.10,2013-01-01 06:41:00,
2013-01-01 01:56:00,58.8,55.0,30.14,SW,217,0.0,-999.0,86,-99.99,,,0.00,weatherlink.com 1.10,2013-01-01 06:56:00,
2013-01-01 02:12:00,58.7,55.0,30.14,SW,222,1.0,-999.0,86,-99.99,,,0.00,weatherlink.com 1.10,2013-01-01 07:12:00,
2013-01-01 02:27:00,58.6,55.0,30.13,SW,219,2.0,-999.0,86,-99.99,,,0.00,weatherlink.com 1.10,2013-01-01 07:27:00,
2013-01-01 02:42:00,58.6,55.0,30.13,SSW,196,0.0,-999.0,86,-99.99,,,0.00,weatherlink.com 1.10,2013-01-01 07:42:00,
2013-01-01 02:57:00,58.6,55.0,30.13,South,189,0.0,-999.0,86,-99.99,,,0.00,weatherlink.com 1.10,2013-01-01 07:57:00,
2013-01-01 03:12:00,58.6,55.0,30.13,SSE,164,0.0,-999.0,86,-99.99,,,0.00,weatherlink.com 1.10,2013-01-01 08:12:00,
2013-01-01 03:27:00,58.6,55.0,30.13,SW,234,2.0,-999.0,86,-99.99,,,0.00,weatherlink.com 1.10,2013-01-01 08:27:00,
2013-01-01 03:42:00,58.4,54.0,30.12,South,184,0.0,-999.0,86,-99.99,,,0.00,weatherlink.com 1.10,2013-01-01 08:42:00,
2013-01-01 03:57:00,58.2,54.0,30.11,South,189,0.0,-999.0,86,-99.99,,,0.00,weatherlink.com 1.10,2013-01-01 08:57:00,
2013-01-01 04:12:00,57.9,54.0,30.11,SW,218,0.0,-999.0,87,-99.99,,,0.00,weatherlink.com 1.10,2013-01-01 09:12:00,
2013-01-01 04:27:00,57.8,54.0,30.11,SW,219,0.0,-999.0,87,-99.99,,,0.00,weatherlink.com 1.10,2013-01-01 09:27:00,
2013-01-01 04:42:00,57.7,54.0,30.10,SW,224,0.0,-999.0,88,-99.99,,,0.00,weatherlink.com 1.10,2013-01-01 09:42:00,
2013-01-01 04:57:00,57.6,54.0,30.09,SW,219,1.0,-999.0,88,-99.99,,,0.00,weatherlink.com 1.10,2013-01-01 09:57:00,
2013-01-01 05:12:00,57.5,54.0,30.10,SW,227,0.0,-999.0,88,-99.99,,,0.00,weatherlink.com 1.10,2013-01-01 10:12:00,
2013-01-01 05:27:00,57.4,54.0,30.09,SW,225,1.0,-999.0,88,-99.99,,,0.00,weatherlink.com 1.10,2013-01-01 10:27:00,
2013-01-01 05:42:00,57.3,54.0,30.09,SW,231,0.0,-999.0,89,-99.99,,,0.00,weatherlink.com 1.10,2013-01-01 10:42:00,
2013-01-01 05:57:00,57.3,54.0,30.09,SW,231,0.0,-999.0,89,-99.99,,,0.00,weatherlink.com 1.10,2013-01-01 10:57:00,
2013-01-01 06:12:00,57.2,54.0,30.10,SW,231,0.0,-999.0,89,-99.99,,,0.00,weatherlink.com 1.10,2013-01-01 11:12:00,
2013-01-01 06:27:00,57.3,54.0,30.10,SW,234,1.0,-999.0,89,-99.99,,,0.00,weatherlink.com 1.10,2013-01-01 11:27:00,
2013-01-01 06:42:00,57.8,55.0,30.10,West,279,2.0,-999.0,89,-99.99,,,0.00,weatherlink.com 1.10,2013-01-01 11:42:00,
2013-01-01 06:57:00,57.9,54.0,30.10,WNW,294,2.0,-999.0,88,-99.99,,,0.00,weatherlink.com 1.10,2013-01-01 11:57:00,
2013-01-01 07:12:00,57.3,54.0,30.11,WNW,294,2.0,-999.0,88,-99.99,,,0.00,weatherlink.com 1.10,2013-01-01 12:12:00,
2013-01-01 07:27:00,57.0,54.0,30.11,WNW,294,0.0,-999.0,90,-99.99,,,0.00,weatherlink.com 1.10,2013-01-01 12:27:00,
2013-01-01 07:42:00,56.8,54.0,30.12,WNW,294,0.0,-999.0,90,-99.99,,,0.00,weatherlink.com 1.10,2013-01-01 12:42:00,
2013-01-01 07:57:00,57.1,54.0,30.12,WNW,303,0.0,-999.0,90,-99.99,,,0.00,weatherlink.com 1.10,2013-01-01 12:57:00,
2013-01-01 08:14:00,57.5,55.0,30.11,WNW,303,0.0,-999.0,90,-99.99,,,0.00,weatherlink.com 1.10,2013-01-01 13:14:00,
2013-01-01 08:30:00,58.3,56.0,30.11,WNW,303,0.0,-999.0,90,-99.99,,,0.00,weatherlink.com 1.10,2013-01-01 13:30:00,
2013-01-01 08:47:00,60.7,57.0,30.12,WNW,303,0.0,-999.0,87,-99.99,,,0.00,weatherlink.com 1.10,2013-01-01 13:47:00,
2013-01-01 09:03:00,61.9,58.0,30.12,South,170,0.0,-999.0,86,-99.99,,,0.00,weatherlink.com 1.10,2013-01-01 14:03:00,
2013-01-01 09:20:00,63.5,58.0,30.12,SW,221,0.0,-999.0,82,-99.99,,,0.00,weatherlink.com 1.10,2013-01-01 14:20:00,
2013-01-01 09:36:00,64.1,59.0,30.13,WSW,238,0.0,-999.0,82,-99.99,,,0.00,weatherlink.com 1.10,2013-01-01 14:36:00,
2013-01-01 09:52:00,64.9,59.0,30.13,WSW,257,2.0,-999.0,80,-99.99,,,0.00,weatherlink.com 1.10,2013-01-01 14:52:00,
2013-01-01 10:09:00,66.4,59.0,30.12,WSW,257,0.0,-999.0,78,-99.99,,,0.00,weatherlink.com 1.10,2013-01-01 15:09:00,
2013-01-01 10:25:00,67.4,60.0,30.13,WSW,246,1.0,-999.0,77,-99.99,,,0.00,weatherlink.com 1.10,2013-01-01 15:25:00,
2013-01-01 10:43:00,68.1,59.0,30.12,West,259,0.0,-999.0,73,-99.99,,,0.00,weatherlink.com 1.10,2013-01-01 15:43:00,
2013-01-01 10:59:00,68.9,59.0,30.11,West,261,6.0,-999.0,71,-99.99,,,0.00,weatherlink.com 1.10,2013-01-01 15:59:00,
2013-01-01 11:15:00,70.0,59.0,30.11,West,278,3.0,-999.0,69,-99.99,,,0.00,weatherlink.com 1.10,2013-01-01 16:15:00,
2013-01-01 11:32:00,71.2,60.0,30.09,West,278,7.0,-999.0,67,-99.99,,,0.00,weatherlink.com 1.10,2013-01-01 16:32:00,
2013-01-01 11:48:00,72.3,59.0,30.09,WSW,254,5.0,-999.0,64,-99.99,,,0.00,weatherlink.com 1.10,2013-01-01 16:48:00,
2013-01-01 12:04:00,72.8,59.0,30.08,WSW,257,9.0,-999.0,63,-99.99,,,0.00,weatherlink.com 1.10,2013-01-01 17:04:00,
2013-01-01 12:20:00,72.8,59.0,30.07,SSW,207,4.0,-999.0,62,-99.99,,,0.00,weatherlink.com 1.10,2013-01-01 17:20:00,
2013-01-01 12:38:00,73.7,59.0,30.06,West,273,5.0,-999.0,60,-99.99,,,0.00,weatherlink.com 1.10,2013-01-01 17:38:00,
2013-01-01 12:54:00,74.2,59.0,30.05,WSW,240,10.0,-999.0,59,-99.99,,,0.00,weatherlink.com 1.10,2013-01-01 17:54:00,
2013-01-01 13:11:00,74.6,60.0,30.04,WSW,240,10.0,-999.0,60,-99.99,,,0.00,weatherlink.com 1.10,2013-01-01 18:11:00,
2013-01-01 13:27:00,74.6,59.0,30.03,WNW,292,11.0,-999.0,59,-99.99,,,0.00,weatherlink.com 1.10,2013-01-01 18:27:00,
2013-01-01 13:43:00,74.0,60.0,30.03,WNW,290,10.0,-999.0,61,-99.99,,,0.00,weatherlink.com 1.10,2013-01-01 18:43:00,
2013-01-01 14:00:00,74.3,59.0,30.02,WNW,284,9.0,-999.0,60,-99.99,,,0.00,weatherlink.com 1.10,2013-01-01 19:00:00,
2013-01-01 14:16:00,74.7,59.0,30.01,WNW,288,10.0,-999.0,59,-99.99,,,0.00,weatherlink.com 1.10,2013-01-01 19:16:00,
2013-01-01 14:32:00,75.3,59.0,30.00,WNW,284,12.0,-999.0,57,-99.99,,,0.00,weatherlink.com 1.10,2013-01-01 19:32:00,
2013-01-01 14:48:00,75.4,59.0,30.01,WSW,258,7.0,-999.0,57,-99.99,,,0.00,weatherlink.com 1.10,2013-01-01 19:48:00,
2013-01-01 15:06:00,75.6,59.0,30.00,SSW,213,3.0,-999.0,56,-99.99,,,0.00,weatherlink.com 1.10,2013-01-01 20:06:00,
2013-01-01 15:21:00,75.5,59.0,30.00,WSW,250,1.0,-999.0,57,-99.99,,,0.00,weatherlink.com 1.10,2013-01-01 20:21:00,
2013-01-01 15:38:00,75.4,59.0,30.00,West,274,6.0,-999.0,57,-99.99,,,0.00,weatherlink.com 1.10,2013-01-01 20:38:00,
2013-01-01 15:54:00,75.6,59.0,30.00,West,281,5.0,-999.0,56,-99.99,,,0.00,weatherlink.com 1.10,2013-01-01 20:54:00,
2013-01-01 16:11:00,75.2,59.0,30.00,West,264,6.0,-999.0,57,-99.99,,,0.00,weatherlink.com 1.10,2013-01-01 21:11:00,
2013-01-01 16:27:00,75.1,59.0,30.00,West,271,9.0,-999.0,57,-99.99,,,0.00,weatherlink.com 1.10,2013-01-01 21:27:00,
2013-01-01 16:44:00,74.8,58.0,30.00,WNW,285,8.0,-999.0,57,-99.99,,,0.00,weatherlink.com 1.10,2013-01-01 21:44:00,
2013-01-01 17:00:00,74.3,58.0,30.00,WNW,284,5.0,-999.0,58,-99.99,,,0.00,weatherlink.com 1.10,2013-01-01 22:00:00,
2013-01-01 17:16:00,73.8,58.0,30.00,WNW,290,2.0,-999.0,59,-99.99,,,0.00,weatherlink.com 1.10,2013-01-01 22:16:00,
2013-01-01 17:33:00,72.9,59.0,30.01,WNW,284,4.0,-999.0,61,-99.99,,,0.00,weatherlink.com 1.10,2013-01-01 22:33:00,
2013-01-01 17:50:00,72.3,58.0,30.00,West,279,4.0,-999.0,62,-99.99,,,0.00,weatherlink.com 1.10,2013-01-01 22:50:00,
2013-01-01 18:06:00,71.8,58.0,30.00,West,263,4.0,-999.0,63,-99.99,,,0.00,weatherlink.com 1.10,2013-01-01 23:06:00,
2013-01-01 18:23:00,71.3,58.0,30.00,West,264,2.0,-999.0,63,-99.99,,,0.00,weatherlink.com 1.10,2013-01-01 23:23:00,
2013-01-01 18:39:00,70.6,58.0,30.00,West,261,0.0,-999.0,64,-99.99,,,0.00,weatherlink.com 1.10,2013-01-01 23:39:00,
2013-01-01 18:56:00,70.1,58.0,30.01,West,261,0.0,-999.0,65,-99.99,,,0.00,weatherlink.com 1.10,2013-01-01 23:56:00,
2013-01-01 19:12:00,69.6,58.0,30.01,West,261,0.0,-999.0,66,-99.99,,,0.00,weatherlink.com 1.10,2013-01-02 00:12:00,
2013-01-01 19:28:00,69.2,58.0,30.01,West,261,0.0,-999.0,67,-99.99,,,0.00,weatherlink.com 1.10,2013-01-02 00:28:00,
2013-01-01 19:45:00,68.7,58.0,30.01,West,261,0.0,-999.0,69,-99.99,,,0.00,weatherlink.com 1.10,2013-01-02 00:45:00,
2013-01-01 20:00:00,68.4,58.0,30.01,West,261,0.0,-999.0,69,-99.99,,,0.00,weatherlink.com 1.10,2013-01-02 01:00:00,
2013-01-01 20:18:00,67.9,58.0,30.01,SW,223,0.0,-999.0,70,-99.99,,,0.00,weatherlink.com 1.10,2013-01-02 01:18:00,
2013-01-01 20:34:00,67.4,58.0,30.01,SW,228,0.0,-999.0,71,-99.99,,,0.00,weatherlink.com 1.10,2013-01-02 01:34:00,
2013-01-01 20:50:00,66.8,57.0,30.01,NNW,344,1.0,-999.0,72,-99.99,,,0.00,weatherlink.com 1.10,2013-01-02 01:50:00,
2013-01-01 21:07:00,66.5,58.0,30.01,WNW,292,5.0,-999.0,74,-99.99,,,0.00,weatherlink.com 1.10,2013-01-02 02:07:00,
2013-01-01 21:23:00,66.3,58.0,30.01,WNW,283,3.0,-999.0,74,-99.99,,,0.00,weatherlink.com 1.10,2013-01-02 02:23:00,
2013-01-01 21:40:00,65.8,58.0,30.02,NW,323,0.0,-999.0,75,-99.99,,,0.00,weatherlink.com 1.10,2013-01-02 02:40:00,
2013-01-01 21:56:00,65.8,58.0,30.01,NW,324,0.0,-999.0,75,-99.99,,,0.00,weatherlink.com 1.10,2013-01-02 02:56:00,
2013-01-01 22:13:00,65.5,58.0,30.01,NW,307,0.0,-999.0,76,-99.99,,,0.00,weatherlink.com 1.10,2013-01-02 03:13:00,
2013-01-01 22:29:00,65.1,58.0,30.01,WNW,297,2.0,-999.0,77,-99.99,,,0.00,weatherlink.com 1.10,2013-01-02 03:29:00,
2013-01-01 22:45:00,64.7,58.0,30.01,WNW,293,0.0,-999.0,78,-99.99,,,0.00,weatherlink.com 1.10,2013-01-02 03:45:00,
2013-01-01 23:02:00,64.0,57.0,30.01,WSW,248,2.0,-999.0,79,-99.99,,,0.00,weatherlink.com 1.10,2013-01-02 04:02:00,
2013-01-01 23:17:00,63.5,58.0,30.01,WSW,248,0.0,-999.0,82,-99.99,,,0.00,weatherlink.com 1.10,2013-01-02 04:17:00,
2013-01-01 23:32:00,62.7,57.0,30.00,WSW,248,0.0,-999.0,82,-99.99,,,0.00,weatherlink.com 1.10,2013-01-02 04:32:00,
2013-01-01 23:47:00,62.6,57.0,29.99,WSW,248,0.0,-999.0,83,-99.99,,,0.00,weatherlink.com 1.10,2013-01-02 04:47:00,